Change the Weather History Date:

Wednesday, September 18, 2013

  Actual Average Record
Temperature  
Mean Temperature 74 °F -  
Max Temperature 89 °F 92 °F 98 °F (1996)
Min Temperature 59 °F 63 °F 53 °F (2002)
Cooling Degree Days 9    
Growing Degree Days 24 (Base 50)    
Moisture  
Dew Point 51 °F    
Average Humidity 56    
Maximum Humidity 100    
Minimum Humidity 7    
Precipitation  
Precipitation 0.00 in 0.00 in - ()
Sea Level Pressure  
Sea Level Pressure 29.86 in    
Wind  
Wind Speed 9 mph ()    
Max Wind Speed 21 mph    
Max Gust Speed -    
Visibility 7.4 miles    
Events      
Averages and records for this station are not official NWS values.
T = Trace of Precipitation, MM = Missing Value Source: Averaged Metar Reports

Daily Weather History Graph

Daily Weather History Graph

Search for Another Location

Airport or City:

Trip Planner

Search our weather history database for the weather conditions in past years. The results will help you decide how hot, cold, wet, or windy it might be!

Date:

Astronomy

Sep. 18, 2013 Rise Set
Actual Time 5:59 AM AWST 6:00 PM AWST
Civil Twilight 5:37 AM AWST 6:22 PM AWST
Nautical Twilight 5:11 AM AWST 6:48 PM AWST
Astronomical Twilight 4:45 AM AWST 7:13 PM AWST
Moon 4:54 PM AWST (9/18) 4:42 AM AWST (9/18)
Length of Visible Light 12h 45m
Length of Day
12h 01m
Waxing Gibbous, 98% of the Moon is Illuminated
Sep 18
Waxing Gibbous
Sep 19
Full
Sep 27
Last Quarter
Oct 5
New
Oct 12
First Quarter

Hourly Weather History & Observations

Time (AWST) Temp. Heat Index Dew Point Humidity Pressure Visibility Wind Dir Wind Speed Gust Speed Precip Events Conditions
12:00 AM 63 °F - 62 °F 96% 29.86 in - WSW 6.9 mph - -  
12:00 AM 62.6 °F - 62.6 °F 100% 29.86 in 6.2 mi WSW 6.9 mph - N/A   Unknown
12:30 AM 62.6 °F - 60.8 °F 94% 29.83 in 6.2 mi WSW 8.1 mph - N/A   Unknown
1:00 AM 62.6 °F - 59.0 °F 88% 29.83 in 6.2 mi SW 6.9 mph - N/A   Unknown
1:30 AM 62.6 °F - 60.8 °F 94% 29.83 in 6.2 mi South 5.8 mph - N/A   Unknown
2:00 AM 61 °F - 58 °F 87% 29.85 in - SSE 4.6 mph - -  
2:00 AM 60.8 °F - 59.0 °F 94% 29.83 in 6.2 mi SSE 4.6 mph - N/A   Unknown
2:30 AM 60.8 °F - 57.2 °F 88% 29.83 in 6.2 mi SSE 1.2 mph - N/A   Unknown
3:00 AM 60 °F - 57 °F 88% 29.83 in - Calm Calm - -  
3:00 AM 60.8 °F - 57.2 °F 88% 29.83 in 6.2 mi Calm Calm - N/A   Unknown
3:30 AM 60.8 °F - 57.2 °F 88% 29.83 in 6.2 mi South 8.1 mph - N/A   Unknown
4:00 AM 60.8 °F - 57.2 °F 88% 29.83 in 6.2 mi South 6.9 mph - N/A   Unknown
4:30 AM 59.0 °F - 55.4 °F 88% 29.83 in 6.2 mi South 5.8 mph - N/A   Unknown
5:00 AM 60 °F - 52 °F 69% 29.85 in - South 5.8 mph - -  
5:00 AM 59.0 °F - 51.8 °F 77% 29.83 in 6.2 mi South 5.8 mph - N/A   Unknown
5:30 AM 59.0 °F - 50.0 °F 72% 29.86 in 6.2 mi SSE 9.2 mph - N/A   Unknown
6:00 AM 60 °F - 46 °F 50% 29.87 in 19 mi SSE 9.2 mph - -   Partly Cloudy
6:00 AM 59.0 °F - 46.4 °F 63% 29.86 in - SSE 9.2 mph - N/A   Clear
6:30 AM 59.0 °F - 46.4 °F 63% 29.89 in - SSE 9.2 mph - N/A   Clear
7:00 AM 62.6 °F - 46.4 °F 55% 29.89 in - SSE 8.1 mph - N/A   Clear
7:30 AM 71.6 °F - 37.4 °F 29% 29.92 in - ESE 11.5 mph - N/A   Clear
8:00 AM 76 °F - 33 °F 12% 29.93 in - ESE 16.1 mph - -  
8:00 AM 75.2 °F - 33.8 °F 22% 29.92 in - ESE 16.1 mph - N/A   Clear
8:30 AM 78.8 °F - 32.0 °F 18% 29.92 in - ESE 19.6 mph - N/A   Clear
9:00 AM 80 °F - 32 °F 9% 29.93 in - ESE 20.7 mph - -  
9:00 AM 80.6 °F - 32.0 °F 17% 29.92 in - ESE 20.7 mph - N/A   Clear
9:30 AM 82.4 °F - 32.0 °F 16% 29.92 in - ESE 18.4 mph - N/A   Clear
10:00 AM 82.4 °F - 30.2 °F 15% 29.92 in - ESE 17.3 mph - N/A   Clear
10:30 AM 84.2 °F - 32.0 °F 15% 29.92 in - East 16.1 mph - N/A   Clear
11:00 AM 87 °F - 33 °F 7% 29.92 in - East 13.8 mph - -  
11:00 AM 87.8 °F - 32.0 °F 14% 29.92 in - East 13.8 mph - N/A   Clear
11:30 AM 87.8 °F - 33.8 °F 15% 29.89 in 6.2 mi ENE 13.8 mph - N/A   Unknown
12:00 PM 88 °F - 32 °F 7% 29.89 in 19 mi NE 11.5 mph - -   Partly Cloudy
12:00 PM 87.8 °F - 32.0 °F 14% 29.89 in - NE 11.5 mph - N/A   Clear
12:30 PM 89.6 °F - 37.4 °F 16% 29.86 in - NNE 13.8 mph - N/A   Clear
1:00 PM 86.0 °F - 48.2 °F 27% 29.83 in - NNE 16.1 mph - N/A   Clear
1:30 PM 84.2 °F - 51.8 °F 33% 29.83 in - North 13.8 mph - N/A   Clear
2:00 PM 85 °F - 48 °F 18% 29.83 in - North 15.0 mph - -  
2:00 PM 84.2 °F - 48.2 °F 29% 29.83 in - North 15.0 mph - N/A   Clear
2:30 PM 84.2 °F - 48.2 °F 29% 29.80 in - North 13.8 mph - N/A   Clear
3:00 PM 83 °F - 48 °F 20% 29.82 in 19 mi North 15.0 mph - -   Partly Cloudy
3:00 PM 82.4 °F - 48.2 °F 30% 29.80 in - North 15.0 mph - N/A   Clear
3:30 PM 82.4 °F - 50.0 °F 32% 29.80 in 6.2 mi North 15.0 mph - N/A   Unknown
4:00 PM 80.6 °F - 51.8 °F 37% 29.80 in 6.2 mi North 16.1 mph - N/A   Unknown
4:30 PM 80.6 °F 80.3 °F 53.6 °F 39% 29.80 in 6.2 mi North 15.0 mph - N/A   Unknown
5:00 PM 79 °F - 53 °F 30% 29.82 in - North 15.0 mph - -  
5:00 PM 78.8 °F - 53.6 °F 42% 29.80 in 6.2 mi North 15.0 mph - N/A   Unknown
5:30 PM 77.0 °F - 57.2 °F 50% 29.83 in 6.2 mi NNW 12.7 mph - N/A   Unknown
6:00 PM 74 °F - 61 °F 55% 29.83 in - NNW 12.7 mph - -  
6:00 PM 75.2 °F - 60.8 °F 61% 29.83 in 6.2 mi NNW 12.7 mph - N/A   Unknown
6:30 PM 73.4 °F - 62.6 °F 69% 29.83 in 6.2 mi WNW 8.1 mph - N/A   Unknown
7:00 PM 71.6 °F - 62.6 °F 73% 29.86 in 6.2 mi WNW 8.1 mph - N/A   Unknown
7:30 PM 69.8 °F - 62.6 °F 78% 29.86 in 6.2 mi WNW 5.8 mph - N/A   Unknown
8:00 PM 68 °F - 63 °F 78% 29.88 in - West 6.9 mph - -  
8:00 PM 68.0 °F - 62.6 °F 83% 29.86 in 6.2 mi West 6.9 mph - N/A   Unknown
8:30 PM 68.0 °F - 62.6 °F 83% 29.89 in 6.2 mi West 4.6 mph - N/A   Unknown
9:00 PM 67 °F - 62 °F 79% 29.90 in - Calm Calm - -  
9:00 PM 68.0 °F - 62.6 °F 83% 29.89 in 6.2 mi Calm Calm - N/A   Unknown
9:30 PM 66.2 °F - 60.8 °F 83% 29.89 in 6.2 mi West 1.2 mph - N/A   Unknown
10:00 PM 64.4 °F - 60.8 °F 88% 29.89 in 6.2 mi SW 6.9 mph - N/A   Unknown
10:30 PM 64.4 °F - 62.6 °F 94% 29.89 in 6.2 mi WSW 8.1 mph - N/A   Unknown
11:00 PM 65 °F - 62 °F 88% 29.89 in - SW 6.9 mph - -  
11:00 PM 64.4 °F - 62.6 °F 94% 29.89 in 6.2 mi SW 6.9 mph - N/A   Unknown
11:30 PM 64.4 °F - 62.6 °F 94% 29.86 in 6.2 mi SW 5.8 mph - N/A   Unknown